{"data":{"norad_id":52280,"epoch":"2026-09-19T15:55:18.491808Z","epoch_age_seconds":131787,"freshness":"FRESH","line1":"1 52280U 22041V   26262.66340847  .00000087  00000+0  14566-4 0  9992","line2":"2 52280  53.1617 304.9623 0001205  82.3428 277.7710 15.31703847243834","mean_motion":15.31703847,"eccentricity":0.0001205,"inclination_deg":53.1617,"raan_deg":304.9623,"arg_perigee_deg":82.3428,"mean_anomaly_deg":277.771,"bstar":1.4566e-5,"rev_number":24383,"period_min":94.012951839247,"perigee_km":469.90323924676,"apogee_km":471.5538158389,"semimajor_km":6848.8655275428,"source":"CELESTRAK","updated_at":"2026-09-20T09:00:40.014400Z"}}